Location: El Atico
(3.0014°N, 75.4378°W)
Time: 12:27:36
(UTC+00:00)

Meteor 1-26 Rocket - Pass Details

Date: 09 December 2025
Orbit: 807 x 926 km, 81.3° (Epoch: 25 January)

Event Time Altitude Azimuth Distance (km) Brightness Sun altitude
Rises 23:04:11 0° 181° (S) 3,433 7.7 -3.4°
Reaches altitude 10° 23:06:39 10° 179° (S) 2,477 7.0 -4.0°
Maximum altitude 23:12:14 73° 95° (E) 870 4.2 -5.3°
Drops below altitude 10° 23:17:38 10° 11° (N) 2,403 6.3 -6.5°
Sets 23:20:00 0° 9° (N) 3,323 7.0 -7.1°
